, MO

(GMT )
Kansas City

Weather History for KMKC - December, 2012

Change the Weather History Date:

Saturday, December 15, 2012

  Actual Average Record
Temperature  
Mean Temperature 50 °F -  
Max Temperature 54 °F 40 °F 64 °F (2002)
Min Temperature 44 °F 24 °F 5 °F (2008)
Degree Days  
Heating Degree Days 16    
Moisture  
Dew Point 43 °F    
Average Humidity 77    
Maximum Humidity 86    
Minimum Humidity 69    
Precipitation  
Precipitation 0.04 in - - ()
Sea Level Pressure  
Sea Level Pressure 29.61 in    
Wind  
Wind Speed 12 mph (SW)    
Max Wind Speed 16 mph    
Max Gust Speed 24 mph    
Visibility 10 miles    
Events Rain    
Averages and records for this station are not official NWS values.
T = Trace of Precipitation, MM = Missing Value Source: NWS Daily Summary

Daily Weather History Graph

Daily Weather History Graph

Search for Another Location

Airport or City:

Trip Planner

Search our weather history database for the weather conditions in past years. The results will help you decide how hot, cold, wet, or windy it might be!

Date:

Astronomy

Dec. 15, 2012 Rise Set
Actual Time 7:30 AM CST 4:56 PM CST
Civil Twilight 7:00 AM CST 5:26 PM CST
Nautical Twilight 6:27 AM CST 6:00 PM CST
Astronomical Twilight 5:54 AM CST 6:33 PM CST
Moon 9:24 AM CST (12/15) 8:00 PM CST (12/15)
Length of Visible Light 10h 26m
Length of Day
9h 26m
Waxing Crescent, 8% of the Moon is Illuminated
Dec 15
Waxing Crescent
Dec 19
First Quarter
Dec 28
Full
Jan 4
Last Quarter
Jan 11
New

Hourly Weather History & Observations

Time (CST) Temp. Windchill Dew Point Humidity Pressure Visibility Wind Dir Wind Speed Gust Speed Precip Events Conditions
12:54 AM 46.0 °F 40.2 °F 41.0 °F 83% 29.64 in 10.0 mi SE 12.7 mph 23.0 mph 0.00 in   Overcast
1:19 AM 46.4 °F 41.9 °F 41.0 °F 81% 29.62 in 10.0 mi SE 9.2 mph 17.3 mph 0.00 in   Overcast
1:54 AM 46.9 °F - 42.1 °F 83% 29.63 in 10.0 mi SSE 10.4 mph 20.7 mph 0.00 in   Overcast
2:54 AM 48.0 °F - 43.0 °F 83% 29.59 in 9.0 mi South 16.1 mph 24.2 mph N/A   Overcast
3:54 AM 48.9 °F - 44.1 °F 83% 29.56 in 10.0 mi South 13.8 mph 20.7 mph N/A   Overcast
4:20 AM 50.0 °F - 44.6 °F 82% 29.54 in 10.0 mi South 16.1 mph 20.7 mph N/A   Overcast
4:54 AM 50.0 °F - 45.0 °F 83% 29.51 in 10.0 mi South 13.8 mph 21.9 mph N/A   Overcast
5:54 AM 50.0 °F - 46.0 °F 86% 29.50 in 4.0 mi SSW 16.1 mph 20.7 mph 0.03 in Rain Light Rain
6:32 AM 50.0 °F - 44.6 °F 82% 29.50 in 10.0 mi South 13.8 mph - 0.01 in Rain Light Rain
6:54 AM 50.0 °F - 45.0 °F 83% 29.50 in 10.0 mi South 15.0 mph 20.7 mph 0.01 in   Overcast
7:54 AM 51.1 °F - 43.0 °F 74% 29.50 in 10.0 mi SSW 15.0 mph 21.9 mph N/A   Overcast
8:54 AM 51.1 °F - 42.1 °F 71% 29.53 in 10.0 mi SW 11.5 mph - N/A   Overcast
9:54 AM 53.1 °F - 43.0 °F 69% 29.54 in 10.0 mi SW 13.8 mph 21.9 mph N/A   Partly Cloudy
10:54 AM 54.0 °F - 44.1 °F 69% 29.57 in 10.0 mi SW 16.1 mph 21.9 mph N/A   Mostly Cloudy
11:54 AM 53.1 °F - 44.1 °F 71% 29.59 in 10.0 mi WSW 13.8 mph - N/A   Overcast
12:54 PM 51.1 °F - 44.1 °F 77% 29.59 in 10.0 mi WSW 9.2 mph 20.7 mph N/A   Overcast
1:54 PM 51.1 °F - 44.1 °F 77% 29.60 in 10.0 mi SW 10.4 mph - N/A   Overcast
2:54 PM 51.1 °F - 43.0 °F 74% 29.61 in 10.0 mi WSW 11.5 mph - N/A   Overcast
3:54 PM 51.8 °F - 44.6 °F 76% 29.64 in 10.0 mi WSW 8.1 mph - N/A   Overcast
4:54 PM 51.1 °F - 43.0 °F 74% 29.65 in 10.0 mi WSW 12.7 mph - N/A   Overcast
5:54 PM 51.1 °F - 42.1 °F 71% 29.68 in 10.0 mi West 12.7 mph 19.6 mph N/A   Overcast
6:54 PM 50.0 °F - 42.1 °F 74% 29.69 in 10.0 mi West 9.2 mph - N/A   Overcast
7:54 PM 50.0 °F - 41.0 °F 71% 29.70 in 10.0 mi West 11.5 mph - N/A   Overcast
8:54 PM 48.9 °F - 39.9 °F 71% 29.70 in 10.0 mi West 8.1 mph - N/A   Overcast
9:54 PM 46.9 °F - 39.0 °F 74% 29.71 in 10.0 mi West 4.6 mph - N/A   Mostly Cloudy
10:01 PM 46.4 °F 43.5 °F 39.2 °F 76% 29.71 in 10.0 mi West 5.8 mph - N/A   Scattered Clouds
10:54 PM 45.0 °F 41.8 °F 39.0 °F 80% 29.73 in 10.0 mi West 5.8 mph - N/A   Clear
11:54 PM 44.1 °F 41.5 °F 37.9 °F 79% 29.73 in 10.0 mi West 4.6 mph - N/A   Clear